Weather Roundup
Issued by NWS

Home | Current Version | Previous Version | Text Only | Print | Product List | Glossary On
Versions: 1 2 3 4 5 6 7 8 9 10 11 12 13 14 15 16 17 18 19 20 21 22 23 24 25 26 27 28 29 30 31 32 33 34 35 36 37 38 39 40 41 42 43 44 45 46 47 48 49 50
000
NZUS93 KARX 011010
HRRWXR

CURRENT HOURLY OBSERVATIONS ACROSS
MUCH OF THE UPPER MISSISSIPPI VALLEY
NATIONAL WEATHER SERVICE LA CROSSE WI
500 AM CDT SAT OCT 01 2016


...SOUTHEAST MINNESOTA...


CITY           SKY/WX    TMP DP  RH WIND       PRES   REMARKS
ROCHESTER      CLOUDY    59  56  89 N7        30.15S
ROCHESTER/MAYO   N/A     58  55  87 NE5       30.15F
WINONA         CLOUDY    59  55  88 NW5       30.14S
AUSTIN         CLOUDY    59  54  82 NE5       30.14S
ALBERT LEA     CLOUDY    59  55  88 CALM      30.15S
DODGE CENTER   CLOUDY    57  54  88 N3        30.15F
PRESTON        CLOUDY    56  55  95 N7        30.14F FOG
OWATONNA       CLOUDY    59  54  82 CALM      30.16S
FARIBAULT      CLOUDY    55  54  94 CALM      30.16F
$$

...ELSEWHERE IN MINNESOTA...


CITY           SKY/WX    TMP DP  RH WIND       PRES   REMARKS
MINNEAPOLIS    CLEAR     54  51  90 N7        30.17F
INTNL FALLS    CLOUDY    39  38  96 CALM      30.25S
DULUTH         FOG       52  52 100 E8        30.23F VSB 1/2
RED WING       MOCLDY    57  54  88 CALM      30.15S
REDWOOD FALLS  CLOUDY    53  50  89 N3        30.17F
MANKATO        CLEAR     56  54  93 NE7       30.16F
WORTHINGTON    CLOUDY    55  53  93 NW5       30.17F
FAIRMONT       CLOUDY    57  54  89 N3        30.17R
$$

...SOUTHWEST WISCONSIN...


CITY           SKY/WX    TMP DP  RH WIND       PRES   REMARKS
LA CROSSE      CLOUDY    62  55  77 NE7       30.12S
PRAIRIE DU CHI CLOUDY    59  56  88 N6        30.09S
BOSCOBEL       CLOUDY    60  58  92 CALM      30.10S
LONE ROCK      CLOUDY    60  58  92 N7        30.09F FOG
PLATTEVILLE    CLOUDY    58  58 100 N5        30.08S
FORT MC COY    CLOUDY    58  55  89 NE3       30.13F
CAMP DOUGLAS   DRIZZLE   57  55  94 N6        30.12S
MAUSTON-NEW LI NOT AVBL
VIROQUA        CLOUDY    56  56 100 NE7       30.12S
WIS DELLS      CLOUDY    58  57  96 NE8       30.10S FOG
$$

...ELSEWHERE IN WISCONSIN...


CITY           SKY/WX    TMP DP  RH WIND       PRES   REMARKS
MILWAUKEE      CLOUDY    61  58  90 NE5       30.06F
MADISON        CLOUDY    59  58  96 NE8       30.07F FOG
GREEN BAY      CLOUDY    60  59  96 NE8       30.13F
EAU CLAIRE     CLEAR     53  51  93 NE6       30.16F
BLACK RVR FLS  CLOUDY    59  52  77 NE7       30.14S
MEDFORD        CLOUDY    51  51 100 E3        30.18S
WAUSAU         MOCLDY    54  52  93 VRB5      30.16S
WIS RAPIDS     CLOUDY    59  55  87 E8        30.15S
MARSHFIELD     MOCLDY    57  51  80 N8        30.16R
RICE LAKE      CLEAR     50  48  93 CALM      30.20F
$$

...NORTHEAST IOWA...


CITY           SKY/WX    TMP DP  RH WIND       PRES   REMARKS
WATERLOO       CLOUDY    58  56  93 NW5       30.10S
DUBUQUE        CLOUDY    58  57  97 N8        30.08S
DECORAH        CLOUDY    57  57 100 N5        30.11R
MASON CITY     CLOUDY    58  55  90 N7        30.15S
CHARLES CITY   CLOUDY    59  55  88 N5        30.13S
OELWEIN        CLOUDY    59  57  94 N7        30.11S
$$

...ELSEWHERE IN IOWA...


CITY           SKY/WX    TMP DP  RH WIND       PRES   REMARKS
DES MOINES     DRIZZLE   60  58  92 N6        30.11F
IOWA CITY      CLOUDY    60  57  89 N8        30.08S
FORT DODGE     CLOUDY    57  54  88 N5        30.15S
MARSHALLTOWN   CLOUDY    59  58  96 N7        30.10F
CEDAR RAPIDS   CLOUDY    59  59 100 N7        30.07F
$$

...NORTHERN ILLINOIS...


CITY           SKY/WX    TMP DP  RH WIND       PRES   REMARKS
CHICAGO-OHARE  CLOUDY    59  56  89 N6        30.02F
CHICAGO-MIDWAY CLOUDY    61  57  87 N5        30.02F
MOLINE         CLOUDY    61  58  90 N7        30.05S
ROCKFORD       CLOUDY    61  59  93 NE5       30.06F FOG
PEORIA         CLOUDY    61  61 100 N5        30.01F
$$

NOTE: "FAIR" INDICATES FEW OR NO CLOUDS BELOW 12,000 FEET WITH NO
SIGNIFICANT WEATHER AND/OR OBSTRUCTIONS TO VISIBILITY. WIND
SPEEDS ARE IN MILES-PER-HOUR.




USA.gov is the U.S. government's official web portal to all federal, state and local government web resources and services.